[[{"header":{"parameterUnit":"m.s-1","parameterCategory":1,"la1":30.2991,"la2":30.254,"lo1":-89.0895,"lo2":-89.0444,"dy":0.0017,"dx":0.0017,"nx":28,"ny":28,"refTime":"2024-06-01T03:00:00:Z","depth":0,"parameterNumber":2,"parameterNumberName":"U-component_of_WINDS"},"data":[0,0,0,0,0,0,0,0,0,0,0,0,0,0,0,0,0,0,0,0,0,0,0,0,0,0,0,0,0,0,0,0,0,0,0,0,0,0,0,0,0,0,0,0,0,0,0,0,0,0,0,0,0,0,0,0,0,0,-2.0857,-2.0859,0,-2.0982,-2.0983,-2.0984,-2.0998,-2.0997,-2.0996,-2.0995,-2.1124,-2.1128,-2.1133,0,0,0,0,0,0,0,0,0,0,0,0,0,-2.0634,-2.0638,-2.0857,-2.0859,-2.086,-2.0981,-2.0983,-2.0985,-2.0999,-2.0997,-2.0996,-2.0994,-2.1122,-2.1128,-2.1133,0,0,0,0,0,0,0,0,0,0,0,0,0,-2.0742,-2.0639,-2.0857,-2.0882,-2.0885,-2.0981,-2.0983,-2.0985,-2.0999,-2.0997,-2.0995,-2.0993,-2.1121,-2.1127,-2.1134,-2.1214,0,0,-2.1155,-2.1158,0,0,0,0,0,0,0,0,-2.0736,-2.075,-2.0877,-2.088,-2.0884,-2.0973,-2.0952,-2.1062,-2.0999,-2.0956,-2.0995,-2.0993,-2.1075,-2.1086,-2.1113,-2.122,-2.1226,-2.1156,-2.116,-2.1163,-2.1165,0,0,0,0,0,0,0,-2.0728,-2.0745,-2.0907,-2.0878,-2.0883,-2.0887,-2.0901,-2.0973,-2.1025,-2.096,-2.0961,-2.0975,-2.1077,-2.1107,-2.1116,-2.1228,-2.1156,-2.1162,-2.1166,-2.1169,-2.1407,-2.1409,0,0,0,0,0,0,-2.0716,-2.0739,-2.0903,-2.091,-2.0804,-2.0893,-2.0908,-2.0946,-2.1024,-2.1034,-2.0977,-2.0975,-2.1096,-2.1108,-2.1121,-2.122,-2.1163,-2.1169,-2.1173,-2.1405,-2.1407,-2.141,0,0,0,0,0,0,-2.0711,-2.073,-2.0898,-2.0825,-2.0846,-2.0899,-2.0942,-2.095,-2.0979,-2.1037,-2.1046,-2.0997,-2.1095,-2.1111,-2.1191,-2.1225,-2.1173,-2.1179,-2.1402,-2.1406,-2.1409,-2.1418,0,0,0,0,0,0,-2.0705,-2.0729,-2.0759,-2.0825,-2.085,-2.0965,-2.0944,-2.0953,-2.0991,-2.099,-2.1059,-2.1068,-2.1094,-2.118,-2.1198,-2.1233,-2.1184,-2.1399,-2.1404,-2.1408,-2.1415,-2.1422,-2.1427,0,0,0,0,0,-2.0697,-2.0758,-2.0761,-2.078,-2.0889,-2.0967,-2.0981,-2.101,-2.0993,-2.1025,-2.1062,-2.1066,-2.1218,-2.1188,-2.1208,-2.1246,-2.1397,-2.1403,-2.1407,-2.1413,-2.142,-2.1427,0,0,0,0,0,0,-2.0695,-2.0767,-2.0771,-2.0855,-2.0905,-2.0969,-2.101,-2.1017,-2.1073,-2.107,-2.1104,-2.1119,-2.1197,-2.123,-2.1195,-2.1328,-2.1306,-2.1315,-2.1304,-2.1311,-2.1317,-2.1308,-2.119,0,0,0,0,0,-2.0704,-2.076,-2.082,-2.0889,-2.0913,-2.0957,-2.0992,-2.1009,-2.1062,-2.1084,-2.1127,-2.1178,-2.1238,-2.1276,-2.1334,-2.142,-2.1435,-2.1456,-2.1462,-2.1466,-2.1474,-2.1521,-2.1531,-2.1426,-2.1426,-2.1426,0,0,-2.0724,-2.077,-2.0804,-2.0889,-2.093,-2.0988,-2.0975,-2.1037,-2.108,-2.1093,-2.1171,-2.1204,-2.1264,-2.1347,-2.1386,-2.1377,-2.1506,-2.1472,-2.1476,-2.1481,-2.1527,-2.1537,-2.1546,-2.1429,-2.1429,-2.1428,0,0,-2.0791,-2.0831,-2.0892,-2.0933,-2.0994,-2.1022,-2.1037,-2.1101,-2.1123,-2.1201,-2.1212,-2.1265,-2.1366,-2.1409,-2.1443,-2.1525,-2.1531,-2.1543,-2.1574,-2.162,-2.1628,-2.1635,-2.1665,-2.1675,-2.155,-2.155,-2.155,0,-2.0808,-2.0895,-2.0923,-2.0985,-2.1022,-2.1035,-2.1098,-2.1136,-2.1214,-2.1239,-2.1228,-2.1356,-2.1397,-2.149,-2.151,-2.1537,-2.1556,-2.1535,-2.1624,-2.1632,-2.164,-2.1668,-2.1679,-2.1551,-2.1551,-2.1551,-2.1551,0,-2.0914,-2.0974,-2.1016,-2.1089,-2.1131,-2.1193,-2.1231,-2.127,-2.1284,-2.1314,-2.1394,-2.1444,-2.1512,-2.1535,-2.155,-2.163,-2.1623,-2.1617,-2.1596,-2.165,-2.1677,-2.1688,-2.1553,-2.1552,-2.1552,-2.1552,0,0,-2.0983,-2.107,-2.1085,-2.1119,-2.1187,-2.1234,-2.1296,-2.1362,-2.1396,-2.1448,-2.1502,-2.1587,-2.1582,-2.1622,-2.1641,-2.1682,-2.1743,-2.1671,-2.1673,-2.1683,-2.1835,-2.1839,-2.1851,-2.1747,-2.1749,-2.1751,-2.183,0,-2.1058,-2.1168,-2.1195,-2.129,-2.1346,-2.1359,-2.1414,-2.1462,-2.1491,-2.1544,-2.1576,-2.1636,-2.1626,-2.165,-2.169,-2.1727,-2.1774,-2.1721,-2.1798,-2.18,-2.1782,-2.1865,-2.187,-2.1942,-2.1841,-2.1843,-2.1844,0,-2.1159,-2.1213,-2.1313,-2.1373,-2.1398,-2.1446,-2.1509,-2.1558,-2.1613,-2.1632,-2.1675,-2.169,-2.1756,-2.1731,-2.1823,-2.1787,-2.1819,-2.1842,-2.1845,-2.1854,-2.1825,-2.1876,-2.1966,-2.1977,-2.1861,-2.186,-2.1858,0,-2.12,-2.1298,-2.137,-2.1398,-2.147,-2.1504,-2.1536,-2.1588,-2.1626,-2.1681,-2.1706,-2.1767,-2.1801,-2.1849,-2.188,-2.186,-2.197,-2.1947,-2.1987,-2.1987,-2.201,-2.2009,-2.2107,-2.2031,-2.2031,-2.203,-2.203,0,-2.1281,-2.1342,-2.1389,-2.1434,-2.1503,-2.1533,-2.16,-2.1632,-2.1679,-2.1731,-2.1746,-2.1794,-2.1832,-2.1886,-2.1911,-2.1983,-2.1998,-2.2016,-2.2022,-2.2015,-2.2012,-2.2037,-2.2033,-2.2033,-2.2033,-2.2032,-2.2031,0,-2.1339,-2.1373,-2.1453,-2.1514,-2.1531,-2.1579,-2.1631,-2.1676,-2.1705,-2.177,-2.1787,-2.1834,-2.1897,-2.1933,-2.2014,-2.203,-2.2111,-2.2114,-2.2092,-2.2095,-2.2133,-2.2129,-2.225,-2.2268,-2.218,-2.218,-2.2181,0,-2.1388,-2.1435,-2.1501,-2.1536,-2.1568,-2.1624,-2.1662,-2.1694,-2.1733,-2.1798,-2.1835,-2.1899,-2.1952,-2.2054,-2.2095,-2.2157,-2.2162,-2.22,-2.2171,-2.2162,-2.2163,-2.216,-2.2165,-2.2205,-2.2206,-2.2207,-2.2207,0,-2.1472,-2.1487,-2.1541,-2.1601,-2.1645,-2.1694,-2.1743,-2.1771,-2.181,-2.1854,-2.1919,-2.196,-2.2041,-2.2105,-2.217,-2.2203,-2.2212,-2.2216,-2.2228,-2.2222,-2.2207,-2.2216,-2.2106,-2.2213,-2.2213,-2.2212,-2.2212,-2.2212,-2.1528,-2.157,-2.1623,-2.1682,-2.1722,-2.1767,-2.1811,-2.1845,-2.19,-2.1968,-2.1983,-2.2051,-2.2104,-2.2192,-2.2227,-2.2281,-2.2274,-2.2292,-2.2297,-2.2301,-2.2303,-2.2198,-2.2293,-2.2293,-2.2293,-2.2293,-2.2293,0,-2.1614,-2.1648,-2.1702,-2.1769,-2.1816,-2.1818,-2.1872,-2.1911,-2.1971,-2.2019,-2.2071,-2.2145,-2.2207,-2.2253,-2.2316,-2.2351,-2.2356,-2.2366,-2.2364,-2.2372,-2.2305,-2.2288,-2.2361,-2.2361,-2.2361,-2.2361,-2.2361,-2.2361,-2.1664,-2.1735,-2.1756,-2.1847,-2.1881,-2.1947,-2.1977,-2.2019,-2.2058,-2.2139,-2.219,-2.2219,-2.2267,-2.2333,-2.239,-2.2402,-2.2425,-2.2435,-2.2447,-2.2384,-2.2377,-2.237,-2.2354,-2.2439,-2.2439,-2.2509,-2.251,-2.2511]},{"header":{"parameterUnit":"m.s-1","parameterCategory":1,"la1":30.2991,"la2":30.254,"lo1":-89.0895,"lo2":-89.0444,"dy":0.0017,"dx":0.0017,"nx":28,"ny":28,"refTime":"2024-06-01T03:00:00:Z","depth":0,"parameterNumber":3,"parameterNumberName":"V-component_of_WINDS"},"data":[0,0,0,0,0,0,0,0,0,0,0,0,0,0,0,0,0,0,0,0,0,0,0,0,0,0,0,0,0,0,0,0,0,0,0,0,0,0,0,0,0,0,0,0,0,0,0,0,0,0,0,0,0,0,0,0,0,0,3.0799,3.0799,0,3.0843,3.0844,3.0844,3.0831,3.083,3.0829,3.0828,3.0873,3.0875,3.0877,0,0,0,0,0,0,0,0,0,0,0,0,0,3.0703,3.0705,3.0799,3.0799,3.08,3.0843,3.0844,3.0844,3.0831,3.083,3.0829,3.0828,3.0872,3.0874,3.0877,0,0,0,0,0,0,0,0,0,0,0,0,0,3.0746,3.0705,3.0799,3.0799,3.0799,3.0843,3.0844,3.0845,3.0831,3.083,3.0829,3.0827,3.0871,3.0874,3.0877,3.0923,0,0,3.0886,3.0888,0,0,0,0,0,0,0,0,3.0743,3.0749,3.0798,3.0799,3.0799,3.083,3.0826,3.0871,3.0832,3.0819,3.0828,3.0827,3.086,3.0863,3.0875,3.0925,3.0927,3.0887,3.0888,3.089,3.0891,0,0,0,0,0,0,0,3.074,3.0747,3.0816,3.0799,3.08,3.0796,3.0801,3.0835,3.0846,3.082,3.0819,3.0825,3.086,3.0872,3.0876,3.0928,3.0887,3.0889,3.0891,3.0892,3.1021,3.1022,0,0,0,0,0,0,3.0737,3.0745,3.0815,3.0818,3.0767,3.0799,3.0804,3.0822,3.0846,3.0848,3.0826,3.0824,3.0867,3.0872,3.0877,3.0933,3.089,3.0893,3.0894,3.1019,3.1021,3.1023,0,0,0,0,0,0,3.0735,3.0743,3.0813,3.0781,3.079,3.0802,3.0822,3.0823,3.0835,3.085,3.0852,3.0836,3.0866,3.0873,3.0912,3.0935,3.0894,3.0897,3.1017,3.102,3.1022,3.1046,0,0,0,0,0,0,3.0732,3.0743,3.076,3.0782,3.0792,3.0848,3.0823,3.0825,3.0841,3.0839,3.0861,3.0863,3.0866,3.0908,3.0915,3.0938,3.0899,3.1015,3.1018,3.1021,3.1043,3.1049,3.1054,0,0,0,0,0,3.0729,3.0765,3.0761,3.077,3.0814,3.0849,3.0854,3.0857,3.0843,3.0861,3.0871,3.0862,3.0932,3.0912,3.092,3.0944,3.1014,3.1017,3.1021,3.1041,3.1048,3.1054,0,0,0,0,0,0,3.0745,3.0767,3.0764,3.0808,3.0827,3.0847,3.0869,3.0864,3.0887,3.0884,3.0887,3.0892,3.0933,3.0943,3.0921,3.0991,3.097,3.0976,3.0983,3.099,3.0995,3.0991,3.0902,0,0,0,0,0,3.0754,3.078,3.0799,3.0836,3.0846,3.0856,3.0871,3.0872,3.0892,3.0899,3.0912,3.0931,3.0957,3.0974,3.0999,3.1046,3.105,3.1066,3.1072,3.1076,3.108,3.1106,3.1114,3.1034,3.1034,3.1034,0,0,3.0771,3.0787,3.0804,3.0839,3.0854,3.0882,3.0862,3.0892,3.0913,3.0904,3.0942,3.0952,3.0974,3.1017,3.1037,3.1027,3.1104,3.1081,3.1084,3.1086,3.1111,3.1118,3.1125,3.1037,3.1036,3.1036,0,0,3.0818,3.0833,3.0866,3.0881,3.0904,3.0911,3.0919,3.0941,3.0947,3.0986,3.098,3.1005,3.105,3.1066,3.108,3.1135,3.1129,3.1144,3.117,3.1196,3.1202,3.1208,3.1228,3.1235,3.1148,3.1148,3.1148,0,3.0837,3.0879,3.0883,3.0914,3.093,3.0924,3.0958,3.0973,3.1002,3.1014,3.1002,3.106,3.1074,3.1121,3.1135,3.1147,3.1156,3.114,3.1201,3.1207,3.1212,3.1231,3.1238,3.115,3.115,3.1149,3.1149,0,3.0901,3.0931,3.0954,3.0984,3.1003,3.1035,3.1044,3.1063,3.1063,3.1072,3.1112,3.1129,3.1158,3.1169,3.1169,3.1217,3.121,3.12,3.1179,3.1221,3.1239,3.1246,3.1152,3.1151,3.1151,3.1151,0,0,3.0957,3.099,3.0999,3.1013,3.1039,3.1062,3.1094,3.1123,3.1139,3.1161,3.1188,3.1228,3.1219,3.1235,3.1237,3.1259,3.1303,3.1246,3.1247,3.1256,3.1357,3.1364,3.1372,3.1299,3.1301,3.1302,3.1355,0,3.1006,3.1062,3.1068,3.1119,3.1146,3.1143,3.1171,3.119,3.12,3.1225,3.1235,3.1263,3.1249,3.1259,3.1281,3.1293,3.1323,3.1289,3.1324,3.1325,3.1318,3.1381,3.1388,3.1438,3.1362,3.1363,3.1364,0,3.1069,3.1093,3.1147,3.1171,3.1183,3.1208,3.1236,3.126,3.1282,3.1287,3.1307,3.1306,3.134,3.1319,3.1366,3.1343,3.1358,3.1366,3.1368,3.1371,3.1346,3.1385,3.1454,3.1461,3.1375,3.1374,3.1374,0,3.1104,3.115,3.1189,3.1201,3.123,3.1248,3.1261,3.1282,3.1299,3.1324,3.1335,3.1363,3.1378,3.14,3.1408,3.1392,3.1455,3.1434,3.146,3.146,3.1472,3.1471,3.1543,3.1483,3.1483,3.1483,3.1483,0,3.1157,3.119,3.1205,3.1228,3.1266,3.1273,3.131,3.1322,3.1341,3.1367,3.1366,3.139,3.1399,3.1426,3.1432,3.147,3.1477,3.1482,3.1483,3.1482,3.1481,3.1491,3.1487,3.1485,3.1485,3.1484,3.1484,0,3.1201,3.1213,3.1254,3.1279,3.1286,3.1312,3.1333,3.1356,3.1367,3.14,3.1408,3.1424,3.1455,3.1465,3.1502,3.1506,3.1551,3.1549,3.1543,3.1543,3.1568,3.1566,3.1649,3.166,3.1593,3.1594,3.1595,0,3.1234,3.1259,3.1287,3.1305,3.1318,3.1347,3.1365,3.1374,3.1393,3.1422,3.1441,3.1472,3.1497,3.1547,3.1562,3.1591,3.159,3.1617,3.1594,3.1592,3.159,3.1588,3.159,3.1621,3.1621,3.1622,3.1622,0,3.129,3.1295,3.1321,3.1351,3.1373,3.1396,3.1418,3.1433,3.1445,3.1467,3.1499,3.1519,3.1558,3.1588,3.1619,3.1632,3.1629,3.163,3.1638,3.1636,3.1631,3.1634,3.1554,3.1628,3.1627,3.1627,3.1626,3.1626,3.1329,3.1352,3.1375,3.1405,3.1424,3.1445,3.1468,3.1482,3.1509,3.1542,3.1545,3.158,3.1604,3.1644,3.1659,3.1687,3.1679,3.1689,3.1692,3.1694,3.1696,3.1628,3.1692,3.1692,3.1692,3.1692,3.1692,0,3.1385,3.1401,3.1428,3.146,3.1484,3.1481,3.1506,3.1526,3.1557,3.1579,3.1605,3.1642,3.1673,3.1691,3.1722,3.1741,3.174,3.1748,3.1746,3.175,3.1701,3.1692,3.1748,3.1748,3.1748,3.1748,3.1748,3.1748,3.1417,3.1456,3.1464,3.1512,3.1527,3.1562,3.1576,3.1597,3.1615,3.1657,3.1682,3.1694,3.1715,3.1748,3.1776,3.1781,3.1792,3.1801,3.1804,3.1759,3.1753,3.1747,3.1738,3.1803,3.1803,3.185,3.1851,3.1851]}]]